Weather History for KOWD - December, 2013

Change the Weather History Date:

Monday, December 30, 2013

  Actual Average Record
Temperature  
Mean Temperature 31 °F -  
Max Temperature 41 °F 35 °F 53 °F (2003)
Min Temperature 21 °F 20 °F 3 °F (2010)
Degree Days  
Heating Degree Days 34    
Moisture  
Dew Point 23 °F    
Average Humidity 69    
Maximum Humidity 93    
Minimum Humidity 39    
Precipitation  
Precipitation 0.00 in - - ()
Sea Level Pressure  
Sea Level Pressure 29.87 in    
Wind  
Wind Speed 7 mph (WNW)    
Max Wind Speed 14 mph    
Max Gust Speed 30 mph    
Visibility 10 miles    
Events      
Averages and records for this station are not official NWS values.
T = Trace of Precipitation, MM = Missing Value Source: NWS Daily Summary

Daily Weather History Graph

Daily Weather History Graph

Search for Another Location

Airport or City:

Trip Planner

Search our weather history database for the weather conditions in past years. The results will help you decide how hot, cold, wet, or windy it might be!

Date:

Astronomy

Dec. 30, 2013 Rise Set
Actual Time 7:13 AM EST 4:21 PM EST
Civil Twilight 6:41 AM EST 4:53 PM EST
Nautical Twilight 6:06 AM EST 5:28 PM EST
Astronomical Twilight 5:32 AM EST 6:02 PM EST
Moon 4:58 AM EST (12/30) 2:52 PM EST (12/30)
Length of Visible Light 10h 12m
Length of Day
9h 08m
Waning Crescent, 5% of the Moon is Illuminated
Dec 30
Waning Crescent
Jan 1
New
Jan 7
First Quarter
Jan 15
Full
Jan 24
Last Quarter

Hourly Weather History & Observations

Time (EST) Temp. Windchill Dew Point Humidity Pressure Visibility Wind Dir Wind Speed Gust Speed Precip Events Conditions
12:39 AM 37.0 °F 32.4 °F 35.1 °F 93% 29.54 in 10.0 mi NW 5.8 mph - N/A   Overcast
12:53 AM 37.0 °F 31.6 °F 35.1 °F 93% 29.56 in 10.0 mi NW 6.9 mph - N/A   Overcast
1:31 AM 37.0 °F 30.4 °F 35.1 °F 93% 29.60 in 10.0 mi WNW 9.2 mph - N/A   Overcast
1:53 AM 36.0 °F 31.1 °F 34.0 °F 93% 29.62 in 10.0 mi West 5.8 mph - N/A   Scattered Clouds
2:53 AM 34.0 °F - 32.0 °F 92% 29.64 in 10.0 mi Calm Calm - N/A   Clear
3:53 AM 35.1 °F - 33.1 °F 92% 29.66 in 10.0 mi Calm Calm - N/A   Partly Cloudy
4:53 AM 35.1 °F 28.6 °F 33.1 °F 92% 29.70 in 10.0 mi WSW 8.1 mph - N/A   Scattered Clouds
5:53 AM 35.1 °F 30.1 °F 33.1 °F 92% 29.73 in 10.0 mi WSW 5.8 mph - N/A   Clear
6:53 AM 36.0 °F 30.3 °F 33.1 °F 89% 29.75 in 10.0 mi SW 6.9 mph - N/A   Clear
7:53 AM 36.0 °F 31.1 °F 33.1 °F 89% 29.79 in 10.0 mi WSW 5.8 mph - N/A   Clear
8:53 AM 37.0 °F 33.3 °F 33.1 °F 86% 29.82 in 10.0 mi SW 4.6 mph - N/A   Clear
9:53 AM 39.9 °F 33.9 °F 33.1 °F 77% 29.85 in 10.0 mi SW 9.2 mph - N/A   Clear
10:53 AM 41.0 °F 34.7 °F 34.0 °F 76% 29.87 in 10.0 mi West 10.4 mph - N/A   Overcast
11:53 AM 39.9 °F 32.5 °F 21.9 °F 49% 29.88 in 10.0 mi WNW 12.7 mph 29.9 mph N/A   Mostly Cloudy
12:53 PM 37.9 °F 30.0 °F 16.0 °F 41% 29.89 in 10.0 mi WNW 12.7 mph 25.3 mph N/A   Clear
1:53 PM 37.0 °F 28.5 °F 14.0 °F 39% 29.91 in 10.0 mi West 13.8 mph - N/A   Clear
2:53 PM 37.0 °F 28.9 °F 14.0 °F 39% 29.94 in 10.0 mi West 12.7 mph - N/A   Clear
3:53 PM 35.1 °F 27.4 °F 12.0 °F 39% 29.98 in 10.0 mi WNW 10.4 mph - N/A   Clear
4:53 PM 32.0 °F 24.8 °F 14.0 °F 48% 30.02 in 10.0 mi WNW 8.1 mph - N/A   Clear
5:53 PM 30.0 °F 20.5 °F 12.0 °F 47% 30.06 in 10.0 mi WNW 11.5 mph 19.6 mph N/A   Clear
6:53 PM 28.0 °F 18.1 °F 12.0 °F 51% 30.09 in 10.0 mi WNW 11.5 mph - N/A   Clear
7:53 PM 26.1 °F 15.6 °F 12.0 °F 55% 30.12 in 10.0 mi NW 11.5 mph - N/A   Clear
8:53 PM 25.0 °F 18.1 °F 12.0 °F 58% 30.13 in 10.0 mi WNW 5.8 mph - N/A   Clear
9:53 PM 23.0 °F 15.8 °F 12.0 °F 63% 30.15 in 10.0 mi NW 5.8 mph - N/A   Clear
10:53 PM 21.9 °F 14.5 °F 8.1 °F 55% 30.15 in 10.0 mi NNW 5.8 mph - N/A   Clear
11:53 PM 21.0 °F 14.6 °F 8.1 °F 57% 30.16 in 10.0 mi NNW 4.6 mph - N/A   Clear